This demonstration page uses our WeatherBlox Daily Observations layout. Learn more.

Left ArrowRight Arrow

39.51506, -84.39828

Hourly Observations for April 12, 2021

Temp ( °F °C ) Dew Point ( °F °C ) Humidity (%) Winds ( mph kmh ) Pressure ( in mb ) Visibility ( mi km ) Precip ( " mm )
12:15 am 00:15 Cloudy 50 9.9 47 8.3 90 90 W 12 19 29.62 1003 10 16.0934 0 0
12:35 am 00:35 Cloudy 50 10 47 8.3 89 89 W 13 20 29.62 1003 10 16.0934 0 0
12:55 am 00:55 Cloudy 50 10 47 8.3 89 89 W 10 17 29.63 1003 10 16.0934 0 0
1:15 am 01:15 Cloudy 50 10 47 8.2 89 89 W 12 19 29.63 1003 10 16.0934 0 0
1:35 am 01:35 Cloudy 50 10 46 8 88 88 W 10 17 29.63 1003 10 16.0934 0 0
1:55 am 01:55 Cloudy 50 10 47 8.3 89 89 W 13 20 29.63 1003 10 16.0934 0 0
2:15 am 02:15 Cloudy 50 10 47 8.2 89 89 W 12 19 29.63 1003 10 16.0934 0 0
2:35 am 02:35 Cloudy 50 10 47 8.3 89 89 W 10 17 29.63 1003 10 16.0934 0 0
2:55 am 02:55 Cloudy 50 10 47 8.3 89 89 W 10 17 29.64 1004 10 16.0934 0 0
3:15 am 03:15 Cloudy 50 10 47 8.5 91 91 W 9 15 29.64 1004 10 16.0934 0 0
3:35 am 03:35 Cloudy 50 10 47 8.6 91 91 W 8 13 29.64 1004 10 16.0934 0 0
3:55 am 03:55 Cloudy 50 10 48 8.7 92 92 W 8 13 29.65 1004 10 16.0934 0 0
4:15 am 04:15 Cloudy 50 10 48 8.7 92 92 W 10 17 29.65 1004 10 16.0934 0 0
4:35 am 04:35 Cloudy 50 10 48 8.8 92 92 WNW 9 15 29.65 1004 10 16.0934 0 0
4:55 am 04:55 Cloudy 50 10 48 9 94 94 WNW 10 17 29.66 1004 10 16.0934 0 0
5:15 am 05:15 Cloudy 50 10 48 9.1 94 94 WNW 8 13 29.67 1005 10 16.0934 0 0
5:35 am 05:35 Cloudy 50 10 48 9.1 94 94 W 6 9 29.67 1005 10 16.0934 0 0
5:55 am 05:55 Cloudy with Light Rain 50 10.1 48 9.1 94 94 W 5 7 29.68 1005 10 16.0934 0 0
6:15 am 06:15 Cloudy with Rain 50 9.9 49 9.4 97 97 WSW 6 9 29.68 1005 7 11.26538 0.02 0.508
6:35 am 06:35 Cloudy with Light Rain 49 9.7 49 9.5 99 99 WSW 6 9 29.69 1005 10 16.0934 0.04 1.016
6:55 am 06:55 Cloudy with Light Rain 49 9.6 49 9.6 100 100 WSW 7 11 29.7 1006 10 16.0934 0.04 1.016
7:15 am 07:15 Cloudy with Light Rain 50 10 N/A N/A WSW 6 9 29.71 1006 7 11.26538 0.01 0.254
7:35 am 07:35 Cloudy with Light Rain 50 10 N/A N/A SW 9 15 29.71 1006 10 16.0934 0.01 0.254
7:55 am 07:55 Cloudy 50 10 N/A N/A SW 10 17 29.71 1006 10 16.0934 0.01 0.254
8:15 am 08:15 Cloudy 50 10 N/A N/A WSW 7 11 29.72 1006 10 16.0934 0 0
8:35 am 08:35 Cloudy 50 10 N/A N/A WSW 9 15 29.74 1007 10 16.0934 0 0
8:55 am 08:55 Cloudy 51 10.5 51 10.5 100 100 W 8 13 29.74 1007 10 16.0934 0 0
9:15 am 09:15 Cloudy 51 10.6 51 10.4 99 99 WSW 8 13 29.75 1007 7 11.26538 0 0
9:35 am 09:35 Cloudy 51 10.8 51 10.6 99 99 WSW 7 11 29.76 1008 10 16.0934 0 0
9:55 am 09:55 Cloudy 52 11 51 10.6 97 97 WSW 7 11 29.77 1008 10 16.0934 0 0
10:15 am 10:15 Cloudy 52 11.2 51 10.8 97 97 W 6 9 29.77 1008 10 16.0934 0 0
10:35 am 10:35 Cloudy 53 11.5 51 10.6 94 94 W 8 13 29.78 1008 10 16.0934 0 0
10:55 am 10:55 Cloudy 53 11.5 51 10.5 94 94 WSW 8 13 29.78 1008 10 16.0934 0 0
11:15 am 11:15 Cloudy 53 11.6 51 10.7 94 94 W 10 17 29.77 1008 10 16.0934 0 0
11:35 am 11:35 Cloudy 53 11.7 51 10.6 93 93 W 8 13 29.78 1009 10 16.0934 0 0
11:55 am 11:55 Cloudy 53 11.7 51 10.6 93 93 W 8 13 29.79 1009 10 16.0934 0 0
12:15 pm 12:15 Cloudy 53 11.8 51 10.7 93 93 W 9 15 29.79 1009 10 16.0934 0 0
12:35 pm 12:35 Cloudy 55 12.9 53 11.4 91 91 W 12 19 29.79 1009 10 16.0934 0 0
12:55 pm 12:55 Cloudy 58 14.3 53 11.4 83 83 W 14 22 29.8 1009 10 16.0934 0 0
1:15 pm 13:15 Cloudy 57 14.1 51 10.4 79 79 W 17 28 29.81 1009 10 16.0934 0 0
1:35 pm 13:35 Cloudy 58 14.2 51 10.4 78 78 W 12 19 29.81 1009 10 16.0934 0 0
1:55 pm 13:55 Cloudy 58 14.3 51 10.3 77 77 WNW 10 17 29.82 1010 10 16.0934 0 0
2:15 pm 14:15 Cloudy 59 15 51 10.4 74 74 WNW 15 24 29.82 1010 10 16.0934 0 0
2:35 pm 14:35 Cloudy 59 14.8 51 10.4 75 75 NW 14 22 29.83 1010 10 16.0934 0 0
2:55 pm 14:55 Cloudy 60 15.4 50 10.1 71 71 NW 17 28 29.83 1010 10 16.0934 0 0
3:15 pm 15:15 Cloudy 60 15.7 51 10.3 70 70 WNW 13 20 29.83 1010 10 16.0934 0 0
3:35 pm 15:35 Cloudy 60 15.7 49 9.3 66 66 NW 15 24 29.84 1011 10 16.0934 0 0
3:55 pm 15:55 Cloudy 62 16.5 50 10.1 66 66 NW 12 19 29.84 1011 10 16.0934 0 0
4:15 pm 16:15 Mostly Cloudy 63 17.4 50 9.8 61 61 WNW 13 20 29.84 1011 10 16.0934 0 0
4:35 pm 16:35 Partly Cloudy 64 17.7 47 8.5 55 55 WNW 14 22 29.84 1010 10 16.0934 0 0
4:55 pm 16:55 Partly Cloudy 63 17.3 47 8.6 57 57 WNW 12 19 29.84 1011 10 16.0934 0 0
5:15 pm 17:15 Partly Cloudy 65 18.1 46 8 52 52 WNW 15 24 29.85 1011 10 16.0934 0 0
5:35 pm 17:35 Cloudy 66 18.9 46 7.7 48 48 NW 14 22 29.85 1011 10 16.0934 0 0
5:55 pm 17:55 Cloudy 66 18.7 47 8.2 51 51 NW 9 15 29.86 1011 10 16.0934 0 0
6:15 pm 18:15 Cloudy 66 18.7 45 7.3 48 48 NW 9 15 29.86 1011 10 16.0934 0 0
6:35 pm 18:35 Cloudy 65 18.4 45 7.1 48 48 WNW 14 22 29.87 1011 10 16.0934 0 0
6:55 pm 18:55 Partly Cloudy 64 17.9 45 7.3 50 50 NNW 10 17 29.88 1012 10 16.0934 0 0
7:15 pm 19:15 Sunny 64 17.6 44 6.7 49 49 NW 14 22 29.89 1012 10 16.0934 0 0
7:35 pm 19:35 Sunny 62 16.9 45 7.1 53 53 NW 7 11 29.89 1012 10 16.0934 0 0
7:55 pm 19:55 Sunny 60 15.7 46 7.6 59 59 Calm 29.9 1013 10 16.0934 0 0
8:15 pm 20:15 Clear 59 14.8 46 7.7 63 63 NW 6 9 29.92 1013 10 16.0934 0 0
8:35 pm 20:35 Clear 57 13.8 46 7.6 66 66 NW 6 9 29.93 1014 10 16.0934 0 0
8:55 pm 20:55 Clear 54 12.3 47 8.5 78 78 NW 6 9 29.94 1014 10 16.0934 0 0
9:15 pm 21:15 Clear 53 11.4 48 9.1 86 86 WNW 5 7 29.96 1014 10 16.0934 0 0
9:35 pm 21:35 Clear 50 10.2 48 8.9 92 92 NW 5 7 29.96 1015 10 16.0934 0 0
9:55 pm 21:55 Clear 50 9.8 47 8.4 91 91 NW 3 6 29.97 1015 10 16.0934 0 0
10:15 pm 22:15 Clear 48 8.9 47 8.6 98 98 Calm 29.98 1015 10 16.0934 0 0
10:35 pm 22:35 Clear 48 8.7 47 8.6 99 99 Calm 29.99 1016 10 16.0934 0 0
10:55 pm 22:55 Clear 47 8.4 47 8.3 99 99 Calm 29.99 1016 10 16.0934 0 0
11:15 pm 23:15 Clear 46 8 N/A N/A Calm 30 1016 10 16.0934 0 0
11:35 pm 23:35 Clear 46 8 N/A N/A Calm 30 1016 10 16.0934 0 0
11:55 pm 23:55 Clear 46 8 N/A N/A Calm 30.01 1016 10 16.0934 0 0

Powered by AerisWeather